Year,Month,Day,Hour,Minute,Value (Times are PST for insolation in W/m^2)
2016,10,02,00,00,0.00
2016,10,02,00,01,0.00
2016,10,02,00,02,0.00
2016,10,02,00,03,0.00
2016,10,02,00,04,0.00
2016,10,02,00,05,0.00
2016,10,02,00,06,0.00
2016,10,02,00,07,0.00
2016,10,02,00,08,0.00
2016,10,02,00,09,0.00
2016,10,02,00,10,0.00
2016,10,02,00,11,0.00
2016,10,02,00,12,0.00
2016,10,02,00,13,0.00
2016,10,02,00,14,0.00
2016,10,02,00,15,0.00
2016,10,02,00,16,0.00
2016,10,02,00,17,0.00
2016,10,02,00,18,0.00
2016,10,02,00,19,0.00
2016,10,02,00,20,0.00
2016,10,02,00,21,0.00
2016,10,02,00,22,0.00
2016,10,02,00,23,0.00
2016,10,02,00,24,0.00
2016,10,02,00,25,0.00
2016,10,02,00,26,0.00
2016,10,02,00,27,0.00
2016,10,02,00,28,0.00
2016,10,02,00,29,0.00
2016,10,02,00,30,0.00
2016,10,02,00,31,0.00
2016,10,02,00,32,0.00
2016,10,02,00,33,0.00
2016,10,02,00,34,0.00
2016,10,02,00,35,0.00
2016,10,02,00,36,0.00
2016,10,02,00,37,0.00
2016,10,02,00,38,0.00
2016,10,02,00,39,0.00
2016,10,02,00,40,0.00
2016,10,02,00,41,0.00
2016,10,02,00,42,0.00
2016,10,02,00,43,0.00
2016,10,02,00,44,0.00
2016,10,02,00,45,0.00
2016,10,02,00,46,0.00
2016,10,02,00,47,0.00
2016,10,02,00,48,0.00
2016,10,02,00,49,0.00
2016,10,02,00,50,0.00
2016,10,02,00,51,0.00
2016,10,02,00,52,0.00
2016,10,02,00,53,0.00
2016,10,02,00,54,0.00
2016,10,02,00,55,0.00
2016,10,02,00,56,0.00
2016,10,02,00,57,0.00
2016,10,02,00,58,0.00
2016,10,02,00,59,0.00
2016,10,02,01,00,0.00
2016,10,02,01,01,0.00
2016,10,02,01,02,0.00
2016,10,02,01,03,0.00
2016,10,02,01,04,0.00
2016,10,02,01,05,0.00
2016,10,02,01,06,0.00
2016,10,02,01,07,0.00
2016,10,02,01,08,0.00
2016,10,02,01,09,0.00
2016,10,02,01,10,0.00
2016,10,02,01,11,0.00
2016,10,02,01,12,0.00
2016,10,02,01,13,0.00
2016,10,02,01,14,0.00
2016,10,02,01,15,0.00
2016,10,02,01,16,0.00
2016,10,02,01,17,0.00
2016,10,02,01,18,0.00
2016,10,02,01,19,0.00
2016,10,02,01,20,0.00
2016,10,02,01,21,0.00
2016,10,02,01,22,0.00
2016,10,02,01,23,0.00
2016,10,02,01,24,0.00
2016,10,02,01,25,0.00
2016,10,02,01,26,0.00
2016,10,02,01,27,0.00
2016,10,02,01,28,0.00
2016,10,02,01,29,0.00
2016,10,02,01,30,0.00
2016,10,02,01,31,0.00
2016,10,02,01,32,0.00
2016,10,02,01,33,0.00
2016,10,02,01,34,0.00
2016,10,02,01,35,0.00
2016,10,02,01,36,0.00
2016,10,02,01,37,0.00
2016,10,02,01,38,0.00
2016,10,02,01,39,0.00
2016,10,02,01,40,0.00
2016,10,02,01,41,0.00
2016,10,02,01,42,0.00
2016,10,02,01,43,0.00
2016,10,02,01,44,0.00
2016,10,02,01,45,0.00
2016,10,02,01,46,0.00
2016,10,02,01,47,0.00
2016,10,02,01,48,0.00
2016,10,02,01,49,0.00
2016,10,02,01,50,0.00
2016,10,02,01,51,0.00
2016,10,02,01,52,0.00
2016,10,02,01,53,0.00
2016,10,02,01,54,0.00
2016,10,02,01,55,0.00
2016,10,02,01,56,0.00
2016,10,02,01,57,0.00
2016,10,02,01,58,0.00
2016,10,02,01,59,0.00
2016,10,02,02,00,0.00
2016,10,02,02,01,0.00
2016,10,02,02,02,0.00
2016,10,02,02,03,0.00
2016,10,02,02,04,0.00
2016,10,02,02,05,0.00
2016,10,02,02,06,0.00
2016,10,02,02,07,0.00
2016,10,02,02,08,0.00
2016,10,02,02,09,0.00
2016,10,02,02,10,0.00
2016,10,02,02,11,0.00
2016,10,02,02,12,0.00
2016,10,02,02,13,0.00
2016,10,02,02,14,0.00
2016,10,02,02,15,0.00
2016,10,02,02,16,0.00
2016,10,02,02,17,0.00
2016,10,02,02,18,0.00
2016,10,02,02,19,0.00
2016,10,02,02,20,0.00
2016,10,02,02,21,0.00
2016,10,02,02,22,0.00
2016,10,02,02,23,0.00
2016,10,02,02,24,0.00
2016,10,02,02,25,0.00
2016,10,02,02,26,0.00
2016,10,02,02,27,0.00
2016,10,02,02,28,0.00
2016,10,02,02,29,0.00
2016,10,02,02,30,0.00
2016,10,02,02,31,0.00
2016,10,02,02,32,0.00
2016,10,02,02,33,0.00
2016,10,02,02,34,0.00
2016,10,02,02,35,0.00
2016,10,02,02,36,0.00
2016,10,02,02,37,0.00
2016,10,02,02,38,0.00
2016,10,02,02,39,0.00
2016,10,02,02,40,0.00
2016,10,02,02,41,0.00
2016,10,02,02,42,0.00
2016,10,02,02,43,0.00
2016,10,02,02,44,0.00
2016,10,02,02,45,0.00
2016,10,02,02,46,0.00
2016,10,02,02,47,0.00
2016,10,02,02,48,0.00
2016,10,02,02,49,0.00
2016,10,02,02,50,0.00
2016,10,02,02,51,0.00
2016,10,02,02,52,0.00
2016,10,02,02,53,0.00
2016,10,02,02,54,0.00
2016,10,02,02,55,0.00
2016,10,02,02,56,0.00
2016,10,02,02,57,0.00
2016,10,02,02,58,0.00
2016,10,02,02,59,0.00
2016,10,02,03,00,0.00
2016,10,02,03,01,0.00
2016,10,02,03,02,0.00
2016,10,02,03,03,0.00
2016,10,02,03,04,0.00
2016,10,02,03,05,0.00
2016,10,02,03,06,0.00
2016,10,02,03,07,0.00
2016,10,02,03,08,0.00
2016,10,02,03,09,0.00
2016,10,02,03,10,0.00
2016,10,02,03,11,0.00
2016,10,02,03,12,0.00
2016,10,02,03,13,0.00
2016,10,02,03,14,0.00
2016,10,02,03,15,0.00
2016,10,02,03,16,0.00
2016,10,02,03,17,0.00
2016,10,02,03,18,0.00
2016,10,02,03,19,0.00
2016,10,02,03,20,0.00
2016,10,02,03,21,0.00
2016,10,02,03,22,0.00
2016,10,02,03,23,0.00
2016,10,02,03,24,0.00
2016,10,02,03,25,0.00
2016,10,02,03,26,0.00
2016,10,02,03,27,0.00
2016,10,02,03,28,0.00
2016,10,02,03,29,0.00
2016,10,02,03,30,0.00
2016,10,02,03,31,0.00
2016,10,02,03,32,0.00
2016,10,02,03,33,0.00
2016,10,02,03,34,0.00
2016,10,02,03,35,0.00
2016,10,02,03,36,0.00
2016,10,02,03,37,0.00
2016,10,02,03,38,0.00
2016,10,02,03,39,0.00
2016,10,02,03,40,0.00
2016,10,02,03,41,0.00
2016,10,02,03,42,0.00
2016,10,02,03,43,0.00
2016,10,02,03,44,0.00
2016,10,02,03,45,0.00
2016,10,02,03,46,0.00
2016,10,02,03,47,0.00
2016,10,02,03,48,0.00
2016,10,02,03,49,0.00
2016,10,02,03,50,0.00
2016,10,02,03,51,0.00
2016,10,02,03,52,0.00
2016,10,02,03,53,0.00
2016,10,02,03,54,0.00
2016,10,02,03,55,0.00
2016,10,02,03,56,0.00
2016,10,02,03,57,0.00
2016,10,02,03,58,0.00
2016,10,02,03,59,0.00
2016,10,02,04,00,0.00
2016,10,02,04,01,0.00
2016,10,02,04,02,0.00
2016,10,02,04,03,0.00
2016,10,02,04,04,0.00
2016,10,02,04,05,0.00
2016,10,02,04,06,0.00
2016,10,02,04,07,0.00
2016,10,02,04,08,0.00
2016,10,02,04,09,0.00
2016,10,02,04,10,0.00
2016,10,02,04,11,0.00
2016,10,02,04,12,0.00
2016,10,02,04,13,0.00
2016,10,02,04,14,0.00
2016,10,02,04,15,0.00
2016,10,02,04,16,0.00
2016,10,02,04,17,0.00
2016,10,02,04,18,0.00
2016,10,02,04,19,0.00
2016,10,02,04,20,0.00
2016,10,02,04,21,0.00
2016,10,02,04,22,0.00
2016,10,02,04,23,0.00
2016,10,02,04,24,0.00
2016,10,02,04,25,0.00
2016,10,02,04,26,0.00
2016,10,02,04,27,0.00
2016,10,02,04,28,0.00
2016,10,02,04,29,0.00
2016,10,02,04,30,0.00
2016,10,02,04,31,0.00
2016,10,02,04,32,0.00
2016,10,02,04,33,0.00
2016,10,02,04,34,0.00
2016,10,02,04,35,0.00
2016,10,02,04,36,0.00
2016,10,02,04,37,0.00
2016,10,02,04,38,0.00
2016,10,02,04,39,0.00
2016,10,02,04,40,0.00
2016,10,02,04,41,0.00
2016,10,02,04,42,0.00
2016,10,02,04,43,0.00
2016,10,02,04,44,0.00
2016,10,02,04,45,0.00
2016,10,02,04,46,0.00
2016,10,02,04,47,0.00
2016,10,02,04,48,0.00
2016,10,02,04,49,0.00
2016,10,02,04,50,0.00
2016,10,02,04,51,0.00
2016,10,02,04,52,0.00
2016,10,02,04,53,0.00
2016,10,02,04,54,0.00
2016,10,02,04,55,0.00
2016,10,02,04,56,0.00
2016,10,02,04,57,0.00
2016,10,02,04,58,0.00
2016,10,02,04,59,0.00
2016,10,02,05,00,0.00
2016,10,02,05,01,0.00
2016,10,02,05,02,0.00
2016,10,02,05,03,0.00
2016,10,02,05,04,0.00
2016,10,02,05,05,0.00
2016,10,02,05,06,0.00
2016,10,02,05,07,0.00
2016,10,02,05,08,0.00
2016,10,02,05,09,0.00
2016,10,02,05,10,0.00
2016,10,02,05,11,0.00
2016,10,02,05,12,0.00
2016,10,02,05,13,0.00
2016,10,02,05,14,0.00
2016,10,02,05,15,0.00
2016,10,02,05,16,0.00
2016,10,02,05,17,0.00
2016,10,02,05,18,0.00
2016,10,02,05,19,0.00
2016,10,02,05,20,0.00
2016,10,02,05,21,0.00
2016,10,02,05,22,0.00
2016,10,02,05,23,0.00
2016,10,02,05,24,0.00
2016,10,02,05,25,0.00
2016,10,02,05,26,0.00
2016,10,02,05,27,0.00
2016,10,02,05,28,0.00
2016,10,02,05,29,0.00
2016,10,02,05,30,0.00
2016,10,02,05,31,0.00
2016,10,02,05,32,0.00
2016,10,02,05,33,0.00
2016,10,02,05,34,0.00
2016,10,02,05,35,0.00
2016,10,02,05,36,0.00
2016,10,02,05,37,0.00
2016,10,02,05,38,0.00
2016,10,02,05,39,0.00
2016,10,02,05,40,0.00
2016,10,02,05,41,0.00
2016,10,02,05,42,0.00
2016,10,02,05,43,0.00
2016,10,02,05,44,0.00
2016,10,02,05,45,0.00
2016,10,02,05,46,0.00
2016,10,02,05,47,0.00
2016,10,02,05,48,0.00
2016,10,02,05,49,0.00
2016,10,02,05,50,0.00
2016,10,02,05,51,0.00
2016,10,02,05,52,0.00
2016,10,02,05,53,0.00
2016,10,02,05,54,0.00
2016,10,02,05,55,0.00
2016,10,02,05,56,0.00
2016,10,02,05,57,0.00
2016,10,02,05,58,0.00
2016,10,02,05,59,0.00
2016,10,02,06,00,0.00
2016,10,02,06,01,0.00
2016,10,02,06,02,0.00
2016,10,02,06,03,0.00
2016,10,02,06,04,0.00
2016,10,02,06,05,0.00
2016,10,02,06,06,0.00
2016,10,02,06,07,0.00
2016,10,02,06,08,0.00
2016,10,02,06,09,0.00
2016,10,02,06,10,0.00
2016,10,02,06,11,0.00
2016,10,02,06,12,0.00
2016,10,02,06,13,0.00
2016,10,02,06,14,0.00
2016,10,02,06,15,0.00
2016,10,02,06,16,0.00
2016,10,02,06,17,0.00
2016,10,02,06,18,0.00
2016,10,02,06,19,0.00
2016,10,02,06,20,0.00
2016,10,02,06,21,0.00
2016,10,02,06,22,0.00
2016,10,02,06,23,0.00
2016,10,02,06,24,0.00
2016,10,02,06,25,0.00
2016,10,02,06,26,0.00
2016,10,02,06,27,0.00
2016,10,02,06,28,0.00
2016,10,02,06,29,0.00
2016,10,02,06,30,0.00
2016,10,02,06,31,0.00
2016,10,02,06,32,0.00
2016,10,02,06,33,0.00
2016,10,02,06,34,0.00
2016,10,02,06,35,0.00
2016,10,02,06,36,0.00
2016,10,02,06,37,0.00
2016,10,02,06,38,0.00
2016,10,02,06,39,0.00
2016,10,02,06,40,0.00
2016,10,02,06,41,0.00
2016,10,02,06,42,0.00
2016,10,02,06,43,0.00
2016,10,02,06,44,0.00
2016,10,02,06,45,0.00
2016,10,02,06,46,0.00
2016,10,02,06,47,0.00
2016,10,02,06,48,0.00
2016,10,02,06,49,0.00
2016,10,02,06,50,0.00
2016,10,02,06,51,0.00
2016,10,02,06,52,0.00
2016,10,02,06,53,0.00
2016,10,02,06,54,0.00
2016,10,02,06,55,0.00
2016,10,02,06,56,0.00
2016,10,02,06,57,0.00
2016,10,02,06,58,0.00
2016,10,02,06,59,0.00
2016,10,02,07,00,0.00
2016,10,02,07,01,0.00
2016,10,02,07,02,0.00
2016,10,02,07,03,0.00
2016,10,02,07,04,0.00
2016,10,02,07,05,0.00
2016,10,02,07,06,0.00
2016,10,02,07,07,0.00
2016,10,02,07,08,0.00
2016,10,02,07,09,0.00
2016,10,02,07,10,0.00
2016,10,02,07,11,0.00
2016,10,02,07,12,0.00
2016,10,02,07,13,0.00
2016,10,02,07,14,0.00
2016,10,02,07,15,0.00
2016,10,02,07,16,0.00
2016,10,02,07,17,0.00
2016,10,02,07,18,0.00
2016,10,02,07,19,0.00
2016,10,02,07,20,0.00
2016,10,02,07,21,0.00
2016,10,02,07,22,0.00
2016,10,02,07,23,0.00
2016,10,02,07,24,0.00
2016,10,02,07,25,0.00
2016,10,02,07,26,0.00
2016,10,02,07,27,0.00
2016,10,02,07,28,0.00
2016,10,02,07,29,0.00
2016,10,02,07,30,0.00
2016,10,02,07,31,0.00
2016,10,02,07,32,0.00
2016,10,02,07,33,0.00
2016,10,02,07,34,0.00
2016,10,02,07,35,0.00
2016,10,02,07,36,0.00
2016,10,02,07,37,2.00
2016,10,02,07,38,5.00
2016,10,02,07,39,5.00
2016,10,02,07,40,5.00
2016,10,02,07,41,6.40
2016,10,02,07,42,8.60
2016,10,02,07,43,9.00
2016,10,02,07,44,11.00
2016,10,02,07,45,11.10
2016,10,02,07,46,12.00
2016,10,02,07,47,12.60
2016,10,02,07,48,14.80
2016,10,02,07,49,16.00
2016,10,02,07,50,16.00
2016,10,02,07,51,17.30
2016,10,02,07,52,18.00
2016,10,02,07,53,16.40
2016,10,02,07,54,17.70
2016,10,02,07,55,18.00
2016,10,02,07,56,19.60
2016,10,02,07,57,23.00
2016,10,02,07,58,23.90
2016,10,02,07,59,26.00
2016,10,02,08,00,26.90
2016,10,02,08,01,28.00
2016,10,02,08,02,29.40
2016,10,02,08,03,31.40
2016,10,02,08,04,34.40
2016,10,02,08,05,36.80
2016,10,02,08,06,39.20
2016,10,02,08,07,42.60
2016,10,02,08,08,46.70
2016,10,02,08,09,50.50
2016,10,02,08,10,57.20
2016,10,02,08,11,65.50
2016,10,02,08,12,71.60
2016,10,02,08,13,77.00
2016,10,02,08,14,83.90
2016,10,02,08,15,89.20
2016,10,02,08,16,90.90
2016,10,02,08,17,89.90
2016,10,02,08,18,87.70
2016,10,02,08,19,86.40
2016,10,02,08,20,88.70
2016,10,02,08,21,91.80
2016,10,02,08,22,95.00
2016,10,02,08,23,99.90
2016,10,02,08,24,104.70
2016,10,02,08,25,106.50
2016,10,02,08,26,105.40
2016,10,02,08,27,104.20
2016,10,02,08,28,104.20
2016,10,02,08,29,110.60
2016,10,02,08,30,122.40
2016,10,02,08,31,114.00
2016,10,02,08,32,108.40
2016,10,02,08,33,104.90
2016,10,02,08,34,102.90
2016,10,02,08,35,93.10
2016,10,02,08,36,91.00
2016,10,02,08,37,91.00
2016,10,02,08,38,91.00
2016,10,02,08,39,111.40
2016,10,02,08,40,141.90
2016,10,02,08,41,160.60
2016,10,02,08,42,176.70
2016,10,02,08,43,186.40
2016,10,02,08,44,174.40
2016,10,02,08,45,162.10
2016,10,02,08,46,155.00
2016,10,02,08,47,144.40
2016,10,02,08,48,129.90
2016,10,02,08,49,120.80
2016,10,02,08,50,113.50
2016,10,02,08,51,115.30
2016,10,02,08,52,106.20
2016,10,02,08,53,94.40
2016,10,02,08,54,93.80
2016,10,02,08,55,95.90
2016,10,02,08,56,97.00
2016,10,02,08,57,95.70
2016,10,02,08,58,96.40
2016,10,02,08,59,102.90
2016,10,02,09,00,100.40
2016,10,02,09,01,105.70
2016,10,02,09,02,120.10
2016,10,02,09,03,132.40
2016,10,02,09,04,129.20
2016,10,02,09,05,118.00
2016,10,02,09,06,119.30
2016,10,02,09,07,123.20
2016,10,02,09,08,126.30
2016,10,02,09,09,132.20
2016,10,02,09,10,143.50
2016,10,02,09,11,154.50
2016,10,02,09,12,168.70
2016,10,02,09,13,178.40
2016,10,02,09,14,194.90
2016,10,02,09,15,205.40
2016,10,02,09,16,208.00
2016,10,02,09,17,227.70
2016,10,02,09,18,224.30
2016,10,02,09,19,218.10
2016,10,02,09,20,217.80
2016,10,02,09,21,256.40
2016,10,02,09,22,268.30
2016,10,02,09,23,216.40
2016,10,02,09,24,207.20
2016,10,02,09,25,222.60
2016,10,02,09,26,250.90
2016,10,02,09,27,258.80
2016,10,02,09,28,217.40
2016,10,02,09,29,190.90
2016,10,02,09,30,185.40
2016,10,02,09,31,188.50
2016,10,02,09,32,175.60
2016,10,02,09,33,163.00
2016,10,02,09,34,148.80
2016,10,02,09,35,146.00
2016,10,02,09,36,145.60
2016,10,02,09,37,142.50
2016,10,02,09,38,139.00
2016,10,02,09,39,138.00
2016,10,02,09,40,134.20
2016,10,02,09,41,130.70
2016,10,02,09,42,128.60
2016,10,02,09,43,127.20
2016,10,02,09,44,127.00
2016,10,02,09,45,126.80
2016,10,02,09,46,122.80
2016,10,02,09,47,120.80
2016,10,02,09,48,118.80
2016,10,02,09,49,115.20
2016,10,02,09,50,113.50
2016,10,02,09,51,111.90
2016,10,02,09,52,108.40
2016,10,02,09,53,105.50
2016,10,02,09,54,104.20
2016,10,02,09,55,104.00
2016,10,02,09,56,105.20
2016,10,02,09,57,112.50
2016,10,02,09,58,124.60
2016,10,02,09,59,145.90
2016,10,02,10,00,170.80
2016,10,02,10,01,198.50
2016,10,02,10,02,219.40
2016,10,02,10,03,231.20
2016,10,02,10,04,232.60
2016,10,02,10,05,224.80
2016,10,02,10,06,223.00
2016,10,02,10,07,192.30
2016,10,02,10,08,177.20
2016,10,02,10,09,164.80
2016,10,02,10,10,153.60
2016,10,02,10,11,145.60
2016,10,02,10,12,140.50
2016,10,02,10,13,137.90
2016,10,02,10,14,135.70
2016,10,02,10,15,134.30
2016,10,02,10,16,132.40
2016,10,02,10,17,132.00
2016,10,02,10,18,134.10
2016,10,02,10,19,140.40
2016,10,02,10,20,150.80
2016,10,02,10,21,166.80
2016,10,02,10,22,186.40
2016,10,02,10,23,202.60
2016,10,02,10,24,216.90
2016,10,02,10,25,236.70
2016,10,02,10,26,248.60
2016,10,02,10,27,244.60
2016,10,02,10,28,233.60
2016,10,02,10,29,222.90
2016,10,02,10,30,208.90
2016,10,02,10,31,194.20
2016,10,02,10,32,184.50
2016,10,02,10,33,181.80
2016,10,02,10,34,190.20
2016,10,02,10,35,224.90
2016,10,02,10,36,251.90
2016,10,02,10,37,263.40
2016,10,02,10,38,261.50
2016,10,02,10,39,266.00
2016,10,02,10,40,225.20
2016,10,02,10,41,231.20
2016,10,02,10,42,272.40
2016,10,02,10,43,263.20
2016,10,02,10,44,279.60
2016,10,02,10,45,247.80
2016,10,02,10,46,268.10
2016,10,02,10,47,320.60
2016,10,02,10,48,397.60
2016,10,02,10,49,395.20
2016,10,02,10,50,437.20
2016,10,02,10,51,478.10
2016,10,02,10,52,480.00
2016,10,02,10,53,480.00
2016,10,02,10,54,474.30
2016,10,02,10,55,461.00
2016,10,02,10,56,433.50
2016,10,02,10,57,406.00
2016,10,02,10,58,307.90
2016,10,02,10,59,263.40
2016,10,02,11,00,330.20
2016,10,02,11,01,379.30
2016,10,02,11,02,383.00
2016,10,02,11,03,391.70
2016,10,02,11,04,434.40
2016,10,02,11,05,378.30
2016,10,02,11,06,314.90
2016,10,02,11,07,337.10
2016,10,02,11,08,352.00
2016,10,02,11,09,352.00
2016,10,02,11,10,352.00
2016,10,02,11,11,360.00
2016,10,02,11,12,451.10
2016,10,02,11,13,450.50
2016,10,02,11,14,450.00
2016,10,02,11,15,450.00
2016,10,02,11,16,521.70
2016,10,02,11,17,689.00
2016,10,02,11,18,689.00
2016,10,02,11,19,689.00
2016,10,02,11,20,689.00
2016,10,02,11,21,552.50
2016,10,02,11,22,479.00
2016,10,02,11,23,475.00
2016,10,02,11,24,253.60
2016,10,02,11,25,259.40
2016,10,02,11,26,272.00
2016,10,02,11,27,281.90
2016,10,02,11,28,242.60
2016,10,02,11,29,200.00
2016,10,02,11,30,303.70
2016,10,02,11,31,372.30
2016,10,02,11,32,419.90
2016,10,02,11,33,472.90
2016,10,02,11,34,509.50
2016,10,02,11,35,519.60
2016,10,02,11,36,643.60
2016,10,02,11,37,633.20
2016,10,02,11,38,620.50
2016,10,02,11,39,617.00
2016,10,02,11,40,614.80
2016,10,02,11,41,612.00
2016,10,02,11,42,585.30
2016,10,02,11,43,571.00
2016,10,02,11,44,571.00
2016,10,02,11,45,571.00
2016,10,02,11,46,571.00
2016,10,02,11,47,571.00
2016,10,02,11,48,560.50
2016,10,02,11,49,529.00
2016,10,02,11,50,529.00
2016,10,02,11,51,529.00
2016,10,02,11,52,545.50
2016,10,02,11,53,533.70
2016,10,02,11,54,520.00
2016,10,02,11,55,224.80
2016,10,02,11,56,151.00
2016,10,02,11,57,151.00
2016,10,02,11,58,151.00
2016,10,02,11,59,151.00
2016,10,02,12,00,151.00
2016,10,02,12,01,151.00
2016,10,02,12,02,151.00
2016,10,02,12,03,434.20
2016,10,02,12,04,659.50
2016,10,02,12,05,668.50
2016,10,02,12,06,677.80
2016,10,02,12,07,692.40
2016,10,02,12,08,694.00
2016,10,02,12,09,622.60
2016,10,02,12,10,226.00
2016,10,02,12,11,258.00
2016,10,02,12,12,337.90
2016,10,02,12,13,475.00
2016,10,02,12,14,464.00
2016,10,02,12,15,503.10
2016,10,02,12,16,529.00
2016,10,02,12,17,529.00
2016,10,02,12,18,529.00
2016,10,02,12,19,718.00
2016,10,02,12,20,728.00
2016,10,02,12,21,628.40
2016,10,02,12,22,249.60
2016,10,02,12,23,231.40
2016,10,02,12,24,242.50
2016,10,02,12,25,262.00
2016,10,02,12,26,330.20
2016,10,02,12,27,361.00
2016,10,02,12,28,419.60
2016,10,02,12,29,440.00
2016,10,02,12,30,397.60
2016,10,02,12,31,355.60
2016,10,02,12,32,307.00
2016,10,02,12,33,294.70
2016,10,02,12,34,294.40
2016,10,02,12,35,291.20
2016,10,02,12,36,292.50
2016,10,02,12,37,309.40
2016,10,02,12,38,322.30
2016,10,02,12,39,377.00
2016,10,02,12,40,424.90
2016,10,02,12,41,431.00
2016,10,02,12,42,449.50
2016,10,02,12,43,554.00
2016,10,02,12,44,653.80
2016,10,02,12,45,858.00
2016,10,02,12,46,845.00
2016,10,02,12,47,851.00
2016,10,02,12,48,841.90
2016,10,02,12,49,832.80
2016,10,02,12,50,831.00
2016,10,02,12,51,855.30
2016,10,02,12,52,890.40
2016,10,02,12,53,912.00
2016,10,02,12,54,844.50
2016,10,02,12,55,652.00
2016,10,02,12,56,680.00
2016,10,02,12,57,680.00
2016,10,02,12,58,483.60
2016,10,02,12,59,317.80
2016,10,02,13,00,319.90
2016,10,02,13,01,279.60
2016,10,02,13,02,245.70
2016,10,02,13,03,241.20
2016,10,02,13,04,239.40
2016,10,02,13,05,206.80
2016,10,02,13,06,180.20
2016,10,02,13,07,160.60
2016,10,02,13,08,184.10
2016,10,02,13,09,232.00
2016,10,02,13,10,244.00
2016,10,02,13,11,244.00
2016,10,02,13,12,445.60
2016,10,02,13,13,489.70
2016,10,02,13,14,479.60
2016,10,02,13,15,293.10
2016,10,02,13,16,215.80
2016,10,02,13,17,231.80
2016,10,02,13,18,250.70
2016,10,02,13,19,255.00
2016,10,02,13,20,246.20
2016,10,02,13,21,234.40
2016,10,02,13,22,243.10
2016,10,02,13,23,263.60
2016,10,02,13,24,267.00
2016,10,02,13,25,267.00
2016,10,02,13,26,267.00
2016,10,02,13,27,267.00
2016,10,02,13,28,267.00
2016,10,02,13,29,267.00
2016,10,02,13,30,267.00
2016,10,02,13,31,267.00
2016,10,02,13,32,267.00
2016,10,02,13,33,267.00
2016,10,02,13,34,267.00
2016,10,02,13,35,487.50
2016,10,02,13,36,512.00
2016,10,02,13,37,492.50
2016,10,02,13,38,328.80
2016,10,02,13,39,356.10
2016,10,02,13,40,403.00
2016,10,02,13,41,403.00
2016,10,02,13,42,376.60
2016,10,02,13,43,355.00
2016,10,02,13,44,458.60
2016,10,02,13,45,568.60
2016,10,02,13,46,585.00
2016,10,02,13,47,392.50
2016,10,02,13,48,408.00
2016,10,02,13,49,408.00
2016,10,02,13,50,408.00
2016,10,02,13,51,552.80
2016,10,02,13,52,765.50
2016,10,02,13,53,761.00
2016,10,02,13,54,542.00
2016,10,02,13,55,424.00
2016,10,02,13,56,424.00
2016,10,02,13,57,424.00
2016,10,02,13,58,607.30
2016,10,02,13,59,617.00
2016,10,02,14,00,635.50
2016,10,02,14,01,691.00
2016,10,02,14,02,661.90
2016,10,02,14,03,632.20
2016,10,02,14,04,664.20
2016,10,02,14,05,657.00
2016,10,02,14,06,645.10
2016,10,02,14,07,635.00
2016,10,02,14,08,624.90
2016,10,02,14,09,618.70
2016,10,02,14,10,612.80
2016,10,02,14,11,610.20
2016,10,02,14,12,604.40
2016,10,02,14,13,604.20
2016,10,02,14,14,606.00
2016,10,02,14,15,606.00
2016,10,02,14,16,603.90
2016,10,02,14,17,600.20
2016,10,02,14,18,599.00
2016,10,02,14,19,596.30
2016,10,02,14,20,592.20
2016,10,02,14,21,592.60
2016,10,02,14,22,594.20
2016,10,02,14,23,589.00
2016,10,02,14,24,588.20
2016,10,02,14,25,585.50
2016,10,02,14,26,584.00
2016,10,02,14,27,580.40
2016,10,02,14,28,577.30
2016,10,02,14,29,577.00
2016,10,02,14,30,577.00
2016,10,02,14,31,573.30
2016,10,02,14,32,574.70
2016,10,02,14,33,574.80
2016,10,02,14,34,580.00
2016,10,02,14,35,578.80
2016,10,02,14,36,577.00
2016,10,02,14,37,577.50
2016,10,02,14,38,577.30
2016,10,02,14,39,579.10
2016,10,02,14,40,581.60
2016,10,02,14,41,577.70
2016,10,02,14,42,577.80
2016,10,02,14,43,574.80
2016,10,02,14,44,572.00
2016,10,02,14,45,565.90
2016,10,02,14,46,558.60
2016,10,02,14,47,556.00
2016,10,02,14,48,555.90
2016,10,02,14,49,554.30
2016,10,02,14,50,503.80
2016,10,02,14,51,522.20
2016,10,02,14,52,531.00
2016,10,02,14,53,154.80
2016,10,02,14,54,161.90
2016,10,02,14,55,92.60
2016,10,02,14,56,92.80
2016,10,02,14,57,113.00
2016,10,02,14,58,137.00
2016,10,02,14,59,137.00
2016,10,02,15,00,396.60
2016,10,02,15,01,558.50
2016,10,02,15,02,550.20
2016,10,02,15,03,538.90
2016,10,02,15,04,533.20
2016,10,02,15,05,532.40
2016,10,02,15,06,528.60
2016,10,02,15,07,526.70
2016,10,02,15,08,526.00
2016,10,02,15,09,526.00
2016,10,02,15,10,528.80
2016,10,02,15,11,532.30
2016,10,02,15,12,533.00
2016,10,02,15,13,531.40
2016,10,02,15,14,532.80
2016,10,02,15,15,533.00
2016,10,02,15,16,471.20
2016,10,02,15,17,122.50
2016,10,02,15,18,136.90
2016,10,02,15,19,160.00
2016,10,02,15,20,342.00
2016,10,02,15,21,526.80
2016,10,02,15,22,503.60
2016,10,02,15,23,527.50
2016,10,02,15,24,479.20
2016,10,02,15,25,514.40
2016,10,02,15,26,498.00
2016,10,02,15,27,81.00
2016,10,02,15,28,81.00
2016,10,02,15,29,219.30
2016,10,02,15,30,492.40
2016,10,02,15,31,487.00
2016,10,02,15,32,492.50
2016,10,02,15,33,502.90
2016,10,02,15,34,506.00
2016,10,02,15,35,506.00
2016,10,02,15,36,464.40
2016,10,02,15,37,496.90
2016,10,02,15,38,499.00
2016,10,02,15,39,493.00
2016,10,02,15,40,472.10
2016,10,02,15,41,476.60
2016,10,02,15,42,494.60
2016,10,02,15,43,487.00
2016,10,02,15,44,437.50
2016,10,02,15,45,413.00
2016,10,02,15,46,285.80
2016,10,02,15,47,281.10
2016,10,02,15,48,285.00
2016,10,02,15,49,285.00
2016,10,02,15,50,332.80
2016,10,02,15,51,450.80
2016,10,02,15,52,425.20
2016,10,02,15,53,475.00
2016,10,02,15,54,475.00
2016,10,02,15,55,458.80
2016,10,02,15,56,448.50
2016,10,02,15,57,448.00
2016,10,02,15,58,297.50
2016,10,02,15,59,278.20
2016,10,02,16,00,415.00
2016,10,02,16,01,415.00
2016,10,02,16,02,415.00
2016,10,02,16,03,411.40
2016,10,02,16,04,404.50
2016,10,02,16,05,400.80
2016,10,02,16,06,397.80
2016,10,02,16,07,394.90
2016,10,02,16,08,390.80
2016,10,02,16,09,385.50
2016,10,02,16,10,378.40
2016,10,02,16,11,377.70
2016,10,02,16,12,375.50
2016,10,02,16,13,373.00
2016,10,02,16,14,369.20
2016,10,02,16,15,365.10
2016,10,02,16,16,362.90
2016,10,02,16,17,362.00
2016,10,02,16,18,359.80
2016,10,02,16,19,359.00
2016,10,02,16,20,357.20
2016,10,02,16,21,355.00
2016,10,02,16,22,351.70
2016,10,02,16,23,349.00
2016,10,02,16,24,345.70
2016,10,02,16,25,343.50
2016,10,02,16,26,338.80
2016,10,02,16,27,336.00
2016,10,02,16,28,333.40
2016,10,02,16,29,330.50
2016,10,02,16,30,327.80
2016,10,02,16,31,325.30
2016,10,02,16,32,323.10
2016,10,02,16,33,321.40
2016,10,02,16,34,318.00
2016,10,02,16,35,314.80
2016,10,02,16,36,309.20
2016,10,02,16,37,309.60
2016,10,02,16,38,305.80
2016,10,02,16,39,302.70
2016,10,02,16,40,302.00
2016,10,02,16,41,294.00
2016,10,02,16,42,292.00
2016,10,02,16,43,116.20
2016,10,02,16,44,125.00
2016,10,02,16,45,242.00
2016,10,02,16,46,287.00
2016,10,02,16,47,283.70
2016,10,02,16,48,278.00
2016,10,02,16,49,278.00
2016,10,02,16,50,263.00
2016,10,02,16,51,255.00
2016,10,02,16,52,100.60
2016,10,02,16,53,62.00
2016,10,02,16,54,67.70
2016,10,02,16,55,73.40
2016,10,02,16,56,52.50
2016,10,02,16,57,51.00
2016,10,02,16,58,51.80
2016,10,02,16,59,53.00
2016,10,02,17,00,53.50
2016,10,02,17,01,54.00
2016,10,02,17,02,54.00
2016,10,02,17,03,55.60
2016,10,02,17,04,56.00
2016,10,02,17,05,56.00
2016,10,02,17,06,56.00
2016,10,02,17,07,55.60
2016,10,02,17,08,53.70
2016,10,02,17,09,53.40
2016,10,02,17,10,54.00
2016,10,02,17,11,54.00
2016,10,02,17,12,55.30
2016,10,02,17,13,56.00
2016,10,02,17,14,57.50
2016,10,02,17,15,59.70
2016,10,02,17,16,63.20
2016,10,02,17,17,67.00